Regional Weather Roundup
Issued by NWS

Home | Current Version | Previous Version | Text Only | Print | Product List | Glossary Off
Versions: 1 2 3 4 5 6 7 8 9 10 11 12 13 14 15 16 17 18 19 20 21 22 23 24 25 26 27 28 29 30 31 32 33 34 35 36 37 38 39 40 41 42 43 44 45 46 47 48 49 50

312
ASUS43 KMKX 081521
RWRWI

WISCONSIN REGIONAL WEATHER ROUNDUP
NATIONAL WEATHER SERVICE MILWAUKEE/SULLIVAN WI
900 AM CST THU DEC 08 2016

NOTE: "FAIR" INDICATES FEW OR NO CLOUDS BELOW 12,000 FEET WITH NO
SIGNIFICANT WEATHER AND/OR OBSTRUCTIONS TO VISIBILITY.

WIZ001-002-006>008-014>016-023>028-081600-
NORTHWEST WISCONSIN

CITY           SKY/WX    TMP DP  RH WIND       PRES   REMARKS
SUPERIOR ARPT  CLOUDY    23  16  74 NW10G17   30.24R WCI  12
ASHLAND        PTSUNNY   24  19  81 NW8       30.17R WCI  15
HAYWARD        CLOUDY    20  16  84 VRB3      30.17R
SIREN          LGT SNOW  22  16  78 NW12      30.24R WCI  10
CUMBERLAND     CLOUDY    21  16  79 NW15G21   30.20R WCI   8
RICE LAKE      PTSUNNY   22  17  82 W9        30.21R WCI  11
CHETEK         CLOUDY    22  17  83 NW5       30.20R WCI  15
LADYSMITH      CLOUDY    22  18  81 NW13      30.16R WCI  10
EAU CLAIRE     CLOUDY    21  16  81 W12       30.22R WCI   9
MENOMONIE      CLOUDY    21  17  83 W15       30.23R WCI   8
NEW RICHMOND   PTSUNNY   20  16  82 W13       30.26R WCI   8
OSCEOLA        CLOUDY    22  17  81 W12       30.30R WCI  10
$$

WIZ003>005-009-010-017-018-081600-
NORTH CENTRAL WISCONSIN

CITY           SKY/WX    TMP DP  RH WIND       PRES   REMARKS
MANITOWISH WTR CLOUDY    21  20  94 NW9G16    30.04R WCI  11
ARBOR VITAE    LGT SNOW  23  19  86 NW7       30.04R WCI  15
WOODRUFF       LGT SNOW  23  19  86 NW7       30.04R WCI  15
RHINELANDER    CLOUDY    22  18  85 W9        30.04R WCI  12
EAGLE RIVER    MOSUNNY   21  17  82 W10       30.01R WCI  10
LAND O LAKES   LGT SNOW  24  20  87 NW9       30.01R WCI  14
PHILLIPS       CLOUDY    20  16  87 W10G17    30.09R WCI   8
TOMAHAWK       CLOUDY    21  17  83 NW12G21   30.07R WCI   9
MEDFORD        CLOUDY    19  15  86 W8        30.11R WCI   9
MERRILL        CLOUDY    21  17  83 NW12G17   30.09R WCI   9
$$

WIZ029-030-035-036-043>047-081600-
CENTRAL WISCONSIN

CITY           SKY/WX    TMP DP  RH WIND       PRES   REMARKS
WAUSAU         CLOUDY    19  15  84 W10       30.10R WCI   7
MOSINEE        LGT SNOW  16  14  93 W12       30.09S WCI   3
MARSHFIELD     CLOUDY    18  13  80 W13       30.13R WCI   5
STEVENS POINT  CLOUDY    16  12  84 W8G17     30.14R WCI   5
WAUPACA        PTSUNNY   21  14  74 W12G18    30.14R WCI   9
WAUTOMA        FLURRIES  18  13  80 W16G23    30.17R WCI   3
WISC RAPIDS    LGT SNOW  17  13  84 W9G18     30.17R FOG     WCI   6
CAMP DOUGLAS   PTSUNNY   19  12  73 W15       30.20R WCI   5
$$

WIZ011>013-019>022-031-037>040-048>050-081600-
NORTHEAST WISCONSIN

CITY           SKY/WX    TMP DP  RH WIND       PRES   REMARKS
ANTIGO         CLOUDY    18  15  87 W14       30.05R WCI   4
SHAWANO        SUNNY     23  15  71 W8        30.09R WCI  14
OCONTO         CLOUDY    22  13  69 W14G22    30.05R WCI   9
STURGEON BAY   CLOUDY    23  17  78 W15       30.04R WCI  10
GREEN BAY      FLURRIES  22  15  75 W21G32    30.08R WCI   6
MANITOWOC      FLURRIES  21  14  73 MISG      30.09R
APPLETON       PTSUNNY   19  12  73 W17G23    30.10R WCI   4
CLINTONVILLE   MOSUNNY   21  12  68 W14       30.10R WCI   8
OSHKOSH        FLURRIES  19  12  74 W16G25    30.12R WCI   4
$$

WIZ032>034-041-042-053>061-081600-
SOUTHWEST WISCONSIN

CITY           SKY/WX    TMP DP  RH WIND       PRES   REMARKS
LA CROSSE      CLOUDY    21  14  74 NW10      30.28R WCI  10
SPARTA         PTSUNNY   19  14  82 W10G17    30.24R WCI   7
VIROQUA        CLOUDY    16  13  86 W9        30.22R WCI   4
BOSCOBEL       CLOUDY    19  11  70 W9        30.29R WCI   8
PRAIRIE DU CHI FLURRIES  18  11  72 W13       30.31R WCI   5
PLATTEVILLE    CLOUDY    15  11  82 W15G23    30.28R WCI   0
$$

WIZ056-057-062-063-064-067-068-081600-
SOUTH CENTRAL WISCONSIN

CITY           SKY/WX    TMP DP  RH WIND       PRES   REMARKS
REEDSBURG      FLURRIES  17  12  78 W12       30.21R WCI   4
BARABOO/DELLS  FLURRIES  17  11  78 W10       30.20R WCI   4
LONE ROCK      CLOUDY    19  11  70 W14       30.27R WCI   6
MINERAL POINT  FLURRIES  18  12  79 W12G22    30.24R WCI   5
MADISON        FLURRIES  16   9  74 W8        30.21R WCI   5
MIDDLETON      PTSUNNY   18  12  78 W14       30.22R WCI   4
WATERTOWN      PTSUNNY   17  11  77 W13       30.19R WCI   3
MONROE         PTSUNNY   14  10  85 W28       30.23R WCI  -6
JANESVILLE     MOSUNNY   18  10  73 W13G18    30.23R WCI   4
$$

WIZ051-052-058>065-066-070>072-081600-
SOUTHEAST WISCONSIN

CITY           SKY/WX    TMP DP  RH WIND       PRES   REMARKS
MILWAUKEE      FLURRIES  20   8  60 W18G25    30.18R WCI   5
WAUKESHA       PTSUNNY   16   9  73 W12G23    30.18R WCI   3
MILWAUKEE/TIMM FLURRIES  18   9  68 W18G25    30.18R WCI   2
RACINE         PTSUNNY   19   9  65 W14G24    30.20R WCI   6
BURLINGTON     PTSUNNY   21  15  77 W10G18    30.20R WCI  10
KENOSHA        MOSUNNY   17   9  70 W18G29    30.20R WCI   1
FOND DU LAC    FLURRIES  19  11  70 W17G24    30.13R WCI   4
SHEBOYGAN      LGT SNOW  20  12  71 W22G31    30.11R WCI   3
WEST BEND      NOT AVBL
JUNEAU         CLOUDY    16  10  78 W16       30.18R WCI   0
$$

LSZ147-162-081600-
LAKE SUPERIOR

STATION/POSITION TIME  TEMP    WIND        PRES    WAVE
                       AIR SEA DIR/SP/G            HT/PER
                 (UTC) (F)     (DEG/KT/KT) (MB)    (FT/S)
DEVILS ISLAND    1500   27     340/ 20/ 25 1022.1R
PORT WING        1500   26     330/ 19/ 23 1022.7
SAXON HARBOR     1430   29     340/ 21/ 28 1019.6R
$$

LMZ867-665-643>646-081600-
LAKE MICHIGAN

STATION/POSITION TIME  TEMP    WIND        PRES    WAVE
                       AIR SEA DIR/SP/G            HT/PER
                 (UTC) (F)     (DEG/KT/KT) (MB)    (FT/S)
CHAMBERS ISLAND  1430   23     240/  9/ 17 1015.2R
NORTHPORT PIER   1502   27     300/  9/ 22 1015.6
SISTER BAY       1351   25     300/ 24/ 30   N/A
KEWAUNEE LAKESHO 1454   20     290/ 16/ 23 1017.0R
SHEBOYGAN LAKESH 1500   20     270/ 24/ 28 1020.4R
PORT WASHINGTON  1501   20     280/ 11/ 25 1021.7R
MILWAUKEE LAKESH 1500   20     280/ 20/ 25   N/A
KENOSHA   LAKESH 1500   18     280/ 17/ 26 1022.7
$$

TC  - TEMPERATURE IN CELSIUS
VSB - VISIBILITY IN STATUTE MILES
WCI - WIND CHILL INDEX
HX  - HEAT INDEX





USA.gov is the U.S. government's official web portal to all federal, state and local government web resources and services.